TimeCDT,TemperatureF,Dew PointF,Humidity,Sea Level PressureIn,VisibilityMPH,Wind Direction,Wind SpeedMPH,Gust SpeedMPH,PrecipitationIn,Events,Conditions,WindDirDegrees,DateUTC
12:54 AM,28.0,21.9,78,30.21,10.0,West,11.5,-,N/A,,Mostly Cloudy,280,2013-05-01 05:54:00
1:22 AM,28.4,21.2,74,30.16,10.0,West,15.0,-,N/A,,Mostly Cloudy,280,2013-05-01 06:22:00
1:29 AM,28.4,21.2,74,30.16,10.0,West,13.8,-,N/A,,Partly Cloudy,280,2013-05-01 06:29:00
1:54 AM,26.6,21.2,80,30.17,10.0,West,10.4,-,N/A,,Clear,260,2013-05-01 06:54:00
2:54 AM,27.0,21.0,78,30.24,10.0,WNW,12.7,-,N/A,,Clear,290,2013-05-01 07:54:00
3:54 AM,25.0,21.0,85,30.27,10.0,West,11.5,-,N/A,,Clear,280,2013-05-01 08:54:00
4:54 AM,26.1,21.0,81,30.31,10.0,West,12.7,-,N/A,,Clear,270,2013-05-01 09:54:00
5:54 AM,25.0,19.9,81,30.34,10.0,West,10.4,-,N/A,,Clear,270,2013-05-01 10:54:00
6:54 AM,25.0,21.0,85,30.40,10.0,WSW,5.8,-,N/A,,Clear,250,2013-05-01 11:54:00
7:54 AM,28.4,21.2,74,30.34,10.0,West,13.8,-,N/A,,Clear,270,2013-05-01 12:54:00
8:54 AM,32.0,21.9,66,30.43,10.0,WNW,16.1,-,N/A,,Clear,300,2013-05-01 13:54:00
9:54 AM,35.1,19.9,54,30.45,10.0,WNW,21.9,27.6,N/A,,Clear,300,2013-05-01 14:54:00
10:54 AM,37.0,21.0,52,30.48,10.0,WNW,19.6,26.5,N/A,,Clear,300,2013-05-01 15:54:00
11:54 AM,37.9,19.9,48,30.49,10.0,NW,16.1,26.5,N/A,,Clear,320,2013-05-01 16:54:00
12:54 PM,41.0,19.9,43,30.51,10.0,WNW,16.1,24.2,N/A,,Mostly Cloudy,290,2013-05-01 17:54:00
1:54 PM,43.0,19.9,40,30.51,10.0,WNW,15.0,24.2,N/A,,Scattered Clouds,300,2013-05-01 18:54:00
2:54 PM,44.1,19.0,37,30.53,10.0,WNW,15.0,31.1,N/A,,Partly Cloudy,290,2013-05-01 19:54:00
3:54 PM,42.1,19.0,40,30.55,10.0,NW,16.1,24.2,N/A,,Scattered Clouds,320,2013-05-01 20:54:00
4:54 PM,44.1,21.0,40,30.55,10.0,NW,13.8,21.9,N/A,,Mostly Cloudy,320,2013-05-01 21:54:00
5:54 PM,44.6,21.2,39,30.51,10.0,NW,13.8,-,N/A,,Scattered Clouds,310,2013-05-01 22:54:00
6:54 PM,42.1,21.9,45,30.58,10.0,NW,12.7,-,N/A,,Clear,320,2013-05-01 23:54:00
7:54 PM,39.9,21.9,49,30.60,10.0,NW,13.8,-,N/A,,Clear,310,2013-05-02 00:54:00
8:54 PM,36.0,23.0,59,30.63,10.0,NW,8.1,-,N/A,,Clear,320,2013-05-02 01:54:00
9:54 PM,30.9,21.9,69,30.65,10.0,NW,6.9,-,N/A,,Clear,320,2013-05-02 02:54:00
10:54 PM,30.9,21.9,69,30.67,10.0,NW,8.1,-,N/A,,Clear,310,2013-05-02 03:54:00
11:54 PM,28.0,21.0,75,30.68,10.0,WNW,6.9,-,N/A,,Clear,300,2013-05-02 04:54:00